PSCTB SNQX-SNSG

Flight info

Callsign PSCTB
Flight time 1h 14m
Altitude 8500
Route 0523S03855W 0614S03854W 0645S03858W 0718S03856W DCT 0749S03856W
Aircraft C208/L-SDFGR/C

Departure

Time 2026-04-18 17:48
Airport Quixadá Airport (SNQX)

Arrival

Time 2026-04-18 19:03
Airport Salgueiro Airport (SNSG)
Time Latitude Longitude Altitude Speed Heading
2026-04-18 17:39 -4.97957 -38.98963 733 ft 0 kts 287°
2026-04-18 17:45 -4.97955 -38.98972 733 ft 5 kts 285°
2026-04-18 17:45 -4.97916 -38.98985 733 ft 6 kts 15°
2026-04-18 17:45 -4.97862 -38.98970 733 ft 10 kts 10°
2026-04-18 17:45 -4.97821 -38.99028 733 ft 15 kts 286°
2026-04-18 17:46 -4.97783 -38.99154 733 ft 23 kts 289°
2026-04-18 17:46 -4.97770 -38.99257 733 ft 10 kts 277°
2026-04-18 17:46 -4.97752 -38.99240 733 ft 0 kts 109°
2026-04-18 17:47 -4.97814 -38.99050 733 ft 52 kts 107°
2026-04-18 17:47 -4.97960 -38.98581 734 ft 85 kts 108°
2026-04-18 17:47 -4.98142 -38.98002 877 ft 89 kts 98°
2026-04-18 17:47 -4.98407 -38.97487 1030 ft 90 kts 152°
2026-04-18 17:48 -4.99089 -38.97508 1048 ft 110 kts 205°
2026-04-18 17:48 -4.99715 -38.97995 1144 ft 117 kts 204°
2026-04-18 17:48 -5.00501 -38.97959 1251 ft 118 kts 161°
2026-04-18 17:48 -5.01296 -38.97729 1378 ft 118 kts 156°
2026-04-18 17:49 -5.01996 -38.97319 1523 ft 117 kts 153°
2026-04-18 17:49 -5.02796 -38.97315 1675 ft 120 kts 191°
2026-04-18 17:49 -5.03656 -38.97281 1842 ft 128 kts 169°
2026-04-18 17:49 -5.04558 -38.97145 2011 ft 134 kts 170°
2026-04-18 17:50 -5.05473 -38.97006 2173 ft 138 kts 169°
2026-04-18 17:50 -5.06427 -38.96854 2333 ft 139 kts 169°
2026-04-18 17:50 -5.07392 -38.96698 2489 ft 141 kts 169°
2026-04-18 17:50 -5.08368 -38.96541 2644 ft 142 kts 168°
2026-04-18 17:51 -5.09267 -38.96393 2786 ft 143 kts 168°
2026-04-18 17:51 -5.10258 -38.96233 2939 ft 144 kts 168°
2026-04-18 17:51 -5.11251 -38.96071 3095 ft 145 kts 168°
2026-04-18 17:51 -5.12247 -38.95910 3242 ft 145 kts 168°
2026-04-18 17:52 -5.13249 -38.95746 3395 ft 146 kts 168°
2026-04-18 17:52 -5.14258 -38.95582 3546 ft 147 kts 168°
2026-04-18 17:52 -5.15268 -38.95418 3696 ft 147 kts 168°
2026-04-18 17:52 -5.16275 -38.95255 3840 ft 146 kts 168°
2026-04-18 17:53 -5.17276 -38.95088 3993 ft 146 kts 168°
2026-04-18 17:53 -5.18285 -38.94928 4143 ft 146 kts 169°
2026-04-18 17:53 -5.19283 -38.94768 4292 ft 145 kts 168°
2026-04-18 17:53 -5.20281 -38.94604 4442 ft 144 kts 168°
2026-04-18 17:54 -5.21268 -38.94445 4590 ft 144 kts 168°
2026-04-18 17:54 -5.22253 -38.94281 4739 ft 146 kts 168°
2026-04-18 17:54 -5.23252 -38.94117 4889 ft 145 kts 168°
2026-04-18 17:54 -5.24257 -38.93957 5040 ft 146 kts 167°
2026-04-18 17:55 -5.25257 -38.93794 5194 ft 146 kts 168°
2026-04-18 17:55 -5.26255 -38.93631 5341 ft 145 kts 168°
2026-04-18 17:55 -5.27249 -38.93470 5488 ft 145 kts 168°
2026-04-18 17:55 -5.28242 -38.93308 5638 ft 145 kts 168°
2026-04-18 17:56 -5.28903 -38.93202 5738 ft 145 kts 168°
2026-04-18 17:56 -5.29901 -38.93038 5887 ft 145 kts 168°
2026-04-18 17:56 -5.31896 -38.92714 6186 ft 145 kts 168°
2026-04-18 17:57 -5.32895 -38.92553 6337 ft 146 kts 168°
2026-04-18 17:57 -5.35233 -38.92171 6688 ft 147 kts 168°
2026-04-18 17:58 -5.36932 -38.91893 6940 ft 148 kts 168°
2026-04-18 17:58 -5.38983 -38.91645 7238 ft 149 kts 177°
2026-04-18 17:59 -5.41059 -38.91616 7538 ft 149 kts 176°
2026-04-18 17:59 -5.42102 -38.91594 7689 ft 150 kts 175°
2026-04-18 17:59 -5.44165 -38.91553 7985 ft 149 kts 175°
2026-04-18 18:00 -5.45193 -38.91535 8132 ft 146 kts 175°
2026-04-18 18:00 -5.47256 -38.91492 8311 ft 154 kts 175°
2026-04-18 18:01 -5.49459 -38.91447 8322 ft 163 kts 175°
2026-04-18 18:01 -5.51768 -38.91403 8326 ft 167 kts 175°
2026-04-18 18:02 -5.54106 -38.91357 8319 ft 168 kts 176°
2026-04-18 18:02 -5.56450 -38.91312 8320 ft 169 kts 176°
2026-04-18 18:02 -5.57624 -38.91289 8317 ft 169 kts 176°
2026-04-18 18:03 -5.59958 -38.91244 8320 ft 169 kts 176°
2026-04-18 18:03 -5.61130 -38.91220 8319 ft 168 kts 176°
2026-04-18 18:04 -5.63473 -38.91174 8327 ft 168 kts 176°
2026-04-18 18:04 -5.64649 -38.91152 8325 ft 169 kts 176°
2026-04-18 18:04 -5.66997 -38.91106 8317 ft 169 kts 176°
2026-04-18 18:05 -5.69348 -38.91058 8320 ft 169 kts 176°
2026-04-18 18:05 -5.70524 -38.91036 8317 ft 169 kts 176°
2026-04-18 18:05 -5.71699 -38.91013 8320 ft 169 kts 176°
2026-04-18 18:06 -5.74045 -38.90967 8319 ft 168 kts 176°
2026-04-18 18:06 -5.75217 -38.90944 8318 ft 168 kts 176°
2026-04-18 18:06 -5.76389 -38.90921 8317 ft 169 kts 176°
2026-04-18 18:07 -5.77562 -38.90899 8319 ft 168 kts 176°
2026-04-18 18:07 -5.78733 -38.90876 8319 ft 168 kts 176°
2026-04-18 18:07 -5.81072 -38.90829 8318 ft 168 kts 176°
2026-04-18 18:08 -5.82243 -38.90806 8320 ft 168 kts 176°
2026-04-18 18:08 -5.83402 -38.90784 8317 ft 168 kts 176°
2026-04-18 18:08 -5.84572 -38.90760 8319 ft 168 kts 176°
2026-04-18 18:08 -5.85758 -38.90737 8321 ft 168 kts 175°
2026-04-18 18:09 -5.86928 -38.90714 8321 ft 168 kts 175°
2026-04-18 18:09 -5.88096 -38.90691 8327 ft 168 kts 175°
2026-04-18 18:09 -5.89251 -38.90668 8321 ft 167 kts 175°
2026-04-18 18:09 -5.90417 -38.90646 8324 ft 168 kts 175°
2026-04-18 18:10 -5.91600 -38.90623 8321 ft 168 kts 175°
2026-04-18 18:10 -5.92752 -38.90600 8321 ft 168 kts 175°
2026-04-18 18:10 -5.93916 -38.90577 8322 ft 168 kts 175°
2026-04-18 18:10 -5.95086 -38.90555 8326 ft 168 kts 175°
2026-04-18 18:11 -5.96253 -38.90531 8325 ft 167 kts 175°
2026-04-18 18:11 -5.97421 -38.90509 8317 ft 168 kts 175°
2026-04-18 18:11 -5.98587 -38.90486 8326 ft 168 kts 175°
2026-04-18 18:11 -5.99748 -38.90462 8327 ft 167 kts 175°
2026-04-18 18:12 -6.00908 -38.90440 8322 ft 166 kts 175°
2026-04-18 18:12 -6.02067 -38.90418 8322 ft 167 kts 176°
2026-04-18 18:12 -6.03234 -38.90394 8331 ft 168 kts 176°
2026-04-18 18:12 -6.04405 -38.90370 8327 ft 168 kts 176°
2026-04-18 18:13 -6.05578 -38.90349 8324 ft 168 kts 176°
2026-04-18 18:13 -6.06749 -38.90326 8327 ft 168 kts 176°
2026-04-18 18:13 -6.07906 -38.90303 8328 ft 169 kts 176°
2026-04-18 18:13 -6.09083 -38.90280 8324 ft 169 kts 176°
2026-04-18 18:14 -6.10220 -38.90257 8330 ft 168 kts 176°
2026-04-18 18:14 -6.11389 -38.90234 8324 ft 168 kts 176°
2026-04-18 18:14 -6.12562 -38.90211 8324 ft 169 kts 176°
2026-04-18 18:14 -6.13738 -38.90189 8328 ft 169 kts 176°
2026-04-18 18:15 -6.14916 -38.90166 8325 ft 169 kts 176°
2026-04-18 18:15 -6.16096 -38.90143 8328 ft 169 kts 176°
2026-04-18 18:15 -6.17272 -38.90118 8330 ft 169 kts 175°
2026-04-18 18:15 -6.18445 -38.90096 8324 ft 168 kts 176°
2026-04-18 18:16 -6.19618 -38.90073 8326 ft 168 kts 176°
2026-04-18 18:16 -6.20791 -38.90049 8324 ft 168 kts 176°
2026-04-18 18:16 -6.21946 -38.90028 8323 ft 168 kts 176°
2026-04-18 18:16 -6.23131 -38.90004 8323 ft 168 kts 176°
2026-04-18 18:17 -6.24287 -38.90115 8326 ft 170 kts 185°
2026-04-18 18:17 -6.25458 -38.90279 8332 ft 169 kts 184°
2026-04-18 18:17 -6.26628 -38.90428 8332 ft 170 kts 184°
2026-04-18 18:17 -6.27803 -38.90576 8334 ft 170 kts 184°
2026-04-18 18:18 -6.28975 -38.90727 8333 ft 170 kts 184°
2026-04-18 18:18 -6.30148 -38.90878 8333 ft 170 kts 184°
2026-04-18 18:18 -6.31321 -38.91029 8334 ft 170 kts 184°
2026-04-18 18:18 -6.32490 -38.91179 8331 ft 169 kts 184°
2026-04-18 18:19 -6.33654 -38.91334 8333 ft 169 kts 184°
2026-04-18 18:19 -6.34824 -38.91483 8339 ft 170 kts 184°
2026-04-18 18:19 -6.35999 -38.91632 8335 ft 170 kts 184°
2026-04-18 18:19 -6.37175 -38.91784 8336 ft 171 kts 184°
2026-04-18 18:20 -6.38355 -38.91936 8340 ft 171 kts 184°
2026-04-18 18:20 -6.39536 -38.92088 8341 ft 171 kts 184°
2026-04-18 18:20 -6.40714 -38.92241 8337 ft 170 kts 184°
2026-04-18 18:20 -6.41888 -38.92391 8336 ft 170 kts 184°
2026-04-18 18:21 -6.43064 -38.92544 8335 ft 170 kts 184°
2026-04-18 18:21 -6.44225 -38.92694 8342 ft 171 kts 184°
2026-04-18 18:21 -6.45402 -38.92846 8336 ft 170 kts 184°
2026-04-18 18:21 -6.46576 -38.92997 8338 ft 171 kts 184°
2026-04-18 18:22 -6.47756 -38.93149 8338 ft 171 kts 184°
2026-04-18 18:22 -6.48931 -38.93302 8336 ft 170 kts 184°
2026-04-18 18:22 -6.50102 -38.93452 8334 ft 170 kts 184°
2026-04-18 18:22 -6.51278 -38.93604 8338 ft 171 kts 184°
2026-04-18 18:23 -6.52461 -38.93757 8342 ft 171 kts 184°
2026-04-18 18:23 -6.53641 -38.93910 8335 ft 171 kts 184°
2026-04-18 18:23 -6.54821 -38.94055 8329 ft 172 kts 184°
2026-04-18 18:23 -6.55992 -38.94212 8329 ft 173 kts 184°
2026-04-18 18:24 -6.57180 -38.94369 8327 ft 171 kts 184°
2026-04-18 18:24 -6.58360 -38.94520 8326 ft 171 kts 184°
2026-04-18 18:24 -6.59540 -38.94671 8328 ft 171 kts 184°
2026-04-18 18:24 -6.60723 -38.94824 8326 ft 171 kts 184°
2026-04-18 18:25 -6.61904 -38.94975 8326 ft 171 kts 184°
2026-04-18 18:25 -6.63085 -38.95128 8326 ft 171 kts 184°
2026-04-18 18:25 -6.64249 -38.95278 8330 ft 170 kts 184°
2026-04-18 18:25 -6.65426 -38.95430 8328 ft 170 kts 184°
2026-04-18 18:26 -6.66607 -38.95579 8328 ft 172 kts 184°
2026-04-18 18:26 -6.67788 -38.95735 8325 ft 171 kts 184°
2026-04-18 18:26 -6.68966 -38.95887 8329 ft 170 kts 184°
2026-04-18 18:26 -6.70141 -38.96038 8324 ft 170 kts 184°
2026-04-18 18:27 -6.71309 -38.96189 8331 ft 170 kts 184°
2026-04-18 18:27 -6.72485 -38.96341 8324 ft 170 kts 184°
2026-04-18 18:27 -6.73658 -38.96492 8324 ft 170 kts 184°
2026-04-18 18:27 -6.74811 -38.96640 8323 ft 169 kts 183°
2026-04-18 18:28 -6.75979 -38.96619 8324 ft 168 kts 172°
2026-04-18 18:28 -6.77147 -38.96534 8324 ft 168 kts 173°
2026-04-18 18:28 -6.78315 -38.96464 8324 ft 168 kts 174°
2026-04-18 18:28 -6.79482 -38.96395 8324 ft 168 kts 174°
2026-04-18 18:29 -6.80653 -38.96323 8325 ft 169 kts 174°
2026-04-18 18:29 -6.81822 -38.96254 8328 ft 167 kts 174°
2026-04-18 18:29 -6.82983 -38.96184 8324 ft 167 kts 174°
2026-04-18 18:29 -6.84148 -38.96113 8324 ft 168 kts 174°
2026-04-18 18:30 -6.85315 -38.96042 8327 ft 168 kts 174°
2026-04-18 18:30 -6.86482 -38.95971 8328 ft 168 kts 174°
2026-04-18 18:30 -6.87657 -38.95900 8326 ft 169 kts 174°
2026-04-18 18:30 -6.88830 -38.95829 8327 ft 169 kts 174°
2026-04-18 18:31 -6.90004 -38.95757 8324 ft 169 kts 174°
2026-04-18 18:31 -6.91165 -38.95688 8334 ft 169 kts 174°
2026-04-18 18:31 -6.92354 -38.95615 8325 ft 169 kts 174°
2026-04-18 18:31 -6.93532 -38.95544 8325 ft 170 kts 174°
2026-04-18 18:32 -6.94694 -38.95474 8326 ft 169 kts 174°
2026-04-18 18:32 -6.95871 -38.95403 8326 ft 169 kts 174°
2026-04-18 18:32 -6.97048 -38.95332 8331 ft 170 kts 174°
2026-04-18 18:32 -6.98233 -38.95261 8332 ft 170 kts 174°
2026-04-18 18:33 -6.99423 -38.95191 8329 ft 172 kts 174°
2026-04-18 18:33 -7.00614 -38.95114 8329 ft 170 kts 174°
2026-04-18 18:33 -7.01799 -38.95040 8333 ft 172 kts 174°
2026-04-18 18:33 -7.02987 -38.94971 8326 ft 170 kts 174°
2026-04-18 18:34 -7.04150 -38.94902 8325 ft 170 kts 174°
2026-04-18 18:34 -7.05330 -38.94828 8325 ft 170 kts 174°
2026-04-18 18:34 -7.06509 -38.94757 8331 ft 169 kts 174°
2026-04-18 18:34 -7.07686 -38.94687 8324 ft 169 kts 174°
2026-04-18 18:35 -7.08866 -38.94616 8326 ft 170 kts 174°
2026-04-18 18:35 -7.10033 -38.94543 8323 ft 170 kts 174°
2026-04-18 18:35 -7.11210 -38.94472 8323 ft 170 kts 174°
2026-04-18 18:35 -7.12380 -38.94405 8325 ft 169 kts 173°
2026-04-18 18:36 -7.13559 -38.94333 8325 ft 168 kts 174°
2026-04-18 18:36 -7.14729 -38.94263 8329 ft 169 kts 174°
2026-04-18 18:36 -7.15890 -38.94191 8323 ft 169 kts 174°
2026-04-18 18:36 -7.17064 -38.94118 8323 ft 169 kts 174°
2026-04-18 18:37 -7.18244 -38.94048 8323 ft 170 kts 174°
2026-04-18 18:37 -7.19422 -38.93978 8324 ft 169 kts 174°
2026-04-18 18:37 -7.20599 -38.93907 8326 ft 169 kts 173°
2026-04-18 18:37 -7.21782 -38.93831 8329 ft 172 kts 174°
2026-04-18 18:38 -7.22975 -38.93761 8327 ft 171 kts 174°
2026-04-18 18:38 -7.24161 -38.93689 8331 ft 171 kts 174°
2026-04-18 18:38 -7.25349 -38.93616 8325 ft 171 kts 174°
2026-04-18 18:38 -7.26532 -38.93544 8326 ft 170 kts 174°
2026-04-18 18:39 -7.27713 -38.93472 8324 ft 170 kts 174°
2026-04-18 18:39 -7.28898 -38.93400 8323 ft 170 kts 174°
2026-04-18 18:39 -7.30077 -38.93332 8324 ft 170 kts 176°
2026-04-18 18:39 -7.31251 -38.93345 8323 ft 170 kts 178°
2026-04-18 18:40 -7.32437 -38.93339 8327 ft 170 kts 177°
2026-04-18 18:40 -7.33622 -38.93334 8326 ft 170 kts 177°
2026-04-18 18:40 -7.34805 -38.93333 8323 ft 170 kts 177°
2026-04-18 18:40 -7.35989 -38.93334 8326 ft 170 kts 177°
2026-04-18 18:41 -7.37178 -38.93334 8324 ft 171 kts 177°
2026-04-18 18:41 -7.38373 -38.93333 8329 ft 172 kts 177°
2026-04-18 18:41 -7.39568 -38.93333 8329 ft 171 kts 177°
2026-04-18 18:41 -7.40760 -38.93333 8325 ft 171 kts 177°
2026-04-18 18:42 -7.41549 -38.93334 8324 ft 171 kts 178°
2026-04-18 18:42 -7.42733 -38.93334 8325 ft 171 kts 177°
2026-04-18 18:42 -7.44326 -38.93336 8326 ft 171 kts 177°
2026-04-18 18:42 -7.45113 -38.93335 8327 ft 172 kts 177°
2026-04-18 18:43 -7.47498 -38.93333 8325 ft 171 kts 177°
2026-04-18 18:43 -7.48688 -38.93332 8324 ft 170 kts 177°
2026-04-18 18:43 -7.49870 -38.93332 8324 ft 170 kts 178°
2026-04-18 18:44 -7.51054 -38.93333 8329 ft 170 kts 177°
2026-04-18 18:44 -7.52238 -38.93333 8323 ft 170 kts 177°
2026-04-18 18:44 -7.53426 -38.93333 8323 ft 170 kts 177°
2026-04-18 18:44 -7.54597 -38.93334 8329 ft 171 kts 177°
2026-04-18 18:45 -7.55786 -38.93333 8324 ft 171 kts 177°
2026-04-18 18:45 -7.56979 -38.93334 8324 ft 171 kts 177°
2026-04-18 18:45 -7.58168 -38.93333 8328 ft 171 kts 177°
2026-04-18 18:45 -7.59356 -38.93332 8324 ft 171 kts 177°
2026-04-18 18:46 -7.60546 -38.93333 8330 ft 171 kts 177°
2026-04-18 18:46 -7.61734 -38.93333 8324 ft 171 kts 177°
2026-04-18 18:46 -7.62929 -38.93333 8326 ft 171 kts 177°
2026-04-18 18:46 -7.64122 -38.93331 8325 ft 171 kts 177°
2026-04-18 18:47 -7.65314 -38.93334 8329 ft 171 kts 177°
2026-04-18 18:47 -7.66491 -38.93333 8328 ft 171 kts 177°
2026-04-18 18:47 -7.67685 -38.93333 8325 ft 171 kts 177°
2026-04-18 18:47 -7.68873 -38.93333 8325 ft 171 kts 177°
2026-04-18 18:48 -7.70064 -38.93331 8326 ft 171 kts 177°
2026-04-18 18:48 -7.71258 -38.93333 8329 ft 172 kts 178°
2026-04-18 18:48 -7.72450 -38.93335 8333 ft 170 kts 177°
2026-04-18 18:48 -7.73638 -38.93338 8326 ft 171 kts 177°
2026-04-18 18:49 -7.74830 -38.93334 8327 ft 171 kts 177°
2026-04-18 18:49 -7.76025 -38.93333 8328 ft 172 kts 177°
2026-04-18 18:49 -7.77225 -38.93332 8328 ft 173 kts 177°
2026-04-18 18:49 -7.78424 -38.93334 8327 ft 172 kts 177°
2026-04-18 18:50 -7.79624 -38.93334 8327 ft 172 kts 177°
2026-04-18 18:50 -7.80817 -38.93338 8326 ft 171 kts 179°
2026-04-18 18:50 -7.81968 -38.93658 8315 ft 176 kts 207°
2026-04-18 18:50 -7.82924 -38.94428 8316 ft 176 kts 219°
2026-04-18 18:51 -7.83847 -38.95243 8319 ft 176 kts 217°
2026-04-18 18:51 -7.84780 -38.96047 8318 ft 176 kts 217°
2026-04-18 18:51 -7.85704 -38.96851 8319 ft 176 kts 218°
2026-04-18 18:51 -7.86637 -38.97664 8327 ft 178 kts 218°
2026-04-18 18:52 -7.87574 -38.98481 8325 ft 178 kts 218°
2026-04-18 18:52 -7.88516 -38.99301 8328 ft 178 kts 218°
2026-04-18 18:52 -7.89455 -39.00120 8330 ft 178 kts 218°
2026-04-18 18:52 -7.90393 -39.00934 8328 ft 178 kts 218°
2026-04-18 18:53 -7.91323 -39.01751 8331 ft 176 kts 218°
2026-04-18 18:53 -7.92243 -39.02552 8323 ft 177 kts 217°
2026-04-18 18:53 -7.93177 -39.03365 8325 ft 178 kts 218°
2026-04-18 18:53 -7.94114 -39.04182 8328 ft 178 kts 218°
2026-04-18 18:54 -7.95051 -39.04998 8323 ft 178 kts 218°
2026-04-18 18:54 -7.95987 -39.05815 8324 ft 177 kts 218°
2026-04-18 18:54 -7.96924 -39.06632 8258 ft 182 kts 218°
2026-04-18 18:54 -7.97905 -39.07484 8013 ft 186 kts 218°
2026-04-18 18:55 -7.98877 -39.08329 7758 ft 182 kts 218°
2026-04-18 18:55 -7.99828 -39.09163 7506 ft 180 kts 218°
2026-04-18 18:55 -8.00774 -39.09990 7256 ft 179 kts 218°
2026-04-18 18:55 -8.01712 -39.10811 7004 ft 179 kts 218°
2026-04-18 18:56 -8.02653 -39.11631 6755 ft 178 kts 218°
2026-04-18 18:56 -8.03634 -39.12336 6506 ft 175 kts 200°
2026-04-18 18:56 -8.04803 -39.12576 6259 ft 171 kts 177°
2026-04-18 18:56 -8.05957 -39.12327 6013 ft 169 kts 154°
2026-04-18 18:57 -8.06932 -39.11670 5763 ft 168 kts 140°
2026-04-18 18:57 -8.07892 -39.10933 5202 ft 174 kts 142°
2026-04-18 18:57 -8.08819 -39.10230 4577 ft 161 kts 142°
2026-04-18 18:57 -8.09700 -39.09567 3951 ft 155 kts 142°
2026-04-18 18:58 -8.10562 -39.08917 3327 ft 153 kts 142°
2026-04-18 18:58 -8.11413 -39.08275 2745 ft 151 kts 142°
2026-04-18 18:58 -8.12168 -39.07589 2344 ft 148 kts 122°
2026-04-18 18:58 -8.12316 -39.06570 2238 ft 151 kts 79°
2026-04-18 18:59 -8.11768 -39.05744 2223 ft 136 kts 37°
2026-04-18 18:59 -8.10936 -39.05485 2220 ft 124 kts
2026-04-18 18:59 -8.10138 -39.05754 2218 ft 122 kts 324°
2026-04-18 18:59 -8.09648 -39.06427 2222 ft 120 kts 287°
2026-04-18 19:00 -8.09518 -39.07258 2226 ft 120 kts 276°
2026-04-18 19:00 -8.09397 -39.08062 2235 ft 109 kts 276°
2026-04-18 19:00 -8.09291 -39.08793 2231 ft 103 kts 277°
2026-04-18 19:00 -8.09186 -39.09505 2230 ft 103 kts 278°
2026-04-18 19:01 -8.08898 -39.10125 2240 ft 96 kts 313°
2026-04-18 19:01 -8.08389 -39.10540 2240 ft 93 kts 328°
2026-04-18 19:01 -8.07888 -39.10936 2172 ft 89 kts 322°
2026-04-18 19:01 -8.07405 -39.11327 2022 ft 88 kts 326°
2026-04-18 19:02 -8.06910 -39.11687 1908 ft 89 kts 326°
2026-04-18 19:02 -8.06408 -39.12049 1812 ft 88 kts 326°
2026-04-18 19:02 -8.05922 -39.12413 1717 ft 84 kts 323°
2026-04-18 19:02 -8.05463 -39.12755 1613 ft 81 kts 323°
2026-04-18 19:03 -8.05038 -39.13067 1554 ft 73 kts 323°
2026-04-18 19:03 -8.04686 -39.13329 1549 ft 45 kts 324°
2026-04-18 19:03 -8.04522 -39.13456 1548 ft 20 kts 324°
2026-04-18 19:04 -8.04497 -39.13572 1546 ft 14 kts 322°
2026-04-18 19:04 -8.04490 -39.13578 1548 ft 0 kts 322°